| time (UTC) | temp F | wind direction | speed MPH | gust MPH | rain 1hr in | rain 24hr in | rain mn in | humidity % | barometer mb |
| 20260503012046 | 61 | 0 | 0.0 | 0.0 | 0.00 | 0.01 | 0.01 | 69 | 1021.0 |
| 20260503011558 | 62 | 0 | 0.0 | 0.0 | 0.00 | 0.01 | 0.01 | 67 | 1021.0 |
| 20260503011048 | 63 | 0 | 0.0 | 0.0 | 0.00 | 0.01 | 0.01 | 66 | 1020.9 |
| 20260503010547 | 63 | 0 | 0.0 | 1.0 | 0.00 | 0.01 | 0.01 | 63 | 1020.8 |
| 20260503010105 | 64 | 0 | 0.0 | 1.0 | 0.00 | 0.01 | 0.01 | 60 | 1020.8 |
| 20260503005550 | 66 | 0 | 0.0 | 1.0 | 0.00 | 0.01 | 0.01 | 56 | 1020.9 |
| 20260503005046 | 66 | 0 | 0.0 | 1.0 | 0.00 | 0.01 | 0.01 | 52 | 1020.9 |
| 20260503004555 | 67 | 0 | 0.0 | 1.0 | 0.00 | 0.01 | 0.01 | 51 | 1020.9 |
| 20260503004051 | 68 | 0 | 0.0 | 2.0 | 0.00 | 0.01 | 0.01 | 49 | 1020.8 |
| 20260503003550 | 68 | 0 | 0.0 | 2.0 | 0.00 | 0.01 | 0.01 | 51 | 1020.8 |
| 20260503003059 | 68 | 106 | 0.0 | 1.0 | 0.00 | 0.01 | 0.01 | 49 | 1020.8 |
| 20260503002548 | 69 | 0 | 0.0 | 2.0 | 0.00 | 0.01 | 0.01 | 48 | 1020.7 |
| 20260503002048 | 69 | 0 | 0.0 | 4.0 | 0.00 | 0.01 | 0.01 | 45 | 1020.8 |
| 20260503001548 | 70 | 13 | 1.0 | 4.0 | 0.00 | 0.01 | 0.01 | 43 | 1020.8 |
| 20260503001051 | 70 | 0 | 0.0 | 3.0 | 0.00 | 0.01 | 0.01 | 43 | 1020.8 |
| 20260503000550 | 71 | 0 | 0.0 | 2.0 | 0.00 | 0.01 | 0.01 | 45 | 1020.7 |
| 20260503000054 | 71 | 0 | 0.0 | 3.0 | 0.00 | 0.01 | 0.01 | 39 | 1020.7 |
| 20260502235553 | 71 | 319 | 0.0 | 3.0 | 0.00 | 0.01 | 0.01 | 41 | 1020.6 |
| 20260502235050 | 71 | 0 | 0.0 | 3.0 | 0.00 | 0.01 | 0.01 | 42 | 1020.7 |
| 20260502234551 | 72 | 34 | 0.0 | 4.0 | 0.00 | 0.01 | 0.01 | 40 | 1020.8 |
| 20260502234051 | 72 | 61 | 1.0 | 4.0 | 0.00 | 0.01 | 0.01 | 42 | 1020.6 |
| 20260502233547 | 72 | 76 | 1.0 | 4.0 | 0.00 | 0.01 | 0.01 | 40 | 1020.6 |
| 20260502233053 | 73 | 102 | 1.0 | 4.0 | 0.00 | 0.01 | 0.01 | 39 | 1020.7 |
| 20260502232548 | 73 | 98 | 1.0 | 4.0 | 0.00 | 0.01 | 0.01 | 41 | 1020.6 |
| 20260502232050 | 73 | 0 | 0.0 | 4.0 | 0.00 | 0.01 | 0.01 | 41 | 1020.7 |
| 20260502231550 | 73 | 346 | 1.0 | 4.0 | 0.00 | 0.01 | 0.01 | 40 | 1020.6 |
| 20260502231050 | 73 | 132 | 1.0 | 6.0 | 0.00 | 0.01 | 0.01 | 44 | 1020.6 |
| 20260502230555 | 73 | 294 | 1.0 | 6.0 | 0.00 | 0.01 | 0.01 | 42 | 1020.6 |
| 20260502230055 | 73 | 0 | 1.0 | 5.0 | 0.00 | 0.01 | 0.01 | 41 | 1020.5 |
| 20260502225548 | 73 | 342 | 1.0 | 7.0 | 0.00 | 0.01 | 0.01 | 42 | 1020.6 |
| 20260502225050 | 73 | 125 | 1.0 | 7.0 | 0.00 | 0.01 | 0.01 | 41 | 1020.5 |
| 20260502224555 | 73 | 11 | 2.0 | 7.0 | 0.00 | 0.01 | 0.01 | 43 | 1020.5 |
| 20260502224048 | 74 | 89 | 2.0 | 6.0 | 0.00 | 0.01 | 0.01 | 45 | 1020.6 |
| 20260502223551 | 74 | 92 | 1.0 | 6.0 | 0.00 | 0.01 | 0.01 | 42 | 1020.5 |
| 20260502223057 | 74 | 9 | 1.0 | 5.0 | 0.00 | 0.01 | 0.01 | 42 | 1020.4 |
| 20260502222550 | 74 | 32 | 0.0 | 5.0 | 0.00 | 0.01 | 0.01 | 43 | 1020.5 |
| 20260502222047 | 74 | 94 | 1.0 | 5.0 | 0.00 | 0.01 | 0.01 | 43 | 1020.5 |
| 20260502221555 | 74 | 31 | 1.0 | 5.0 | 0.00 | 0.01 | 0.01 | 43 | 1020.6 |
| 20260502221048 | 75 | 46 | 1.0 | 9.0 | 0.00 | 0.01 | 0.01 | 44 | 1020.6 |
| 20260502220548 | 74 | 17 | 2.0 | 9.0 | 0.00 | 0.01 | 0.01 | 45 | 1020.5 |
| 20260502220057 | 74 | 63 | 2.0 | 7.0 | 0.00 | 0.01 | 0.01 | 39 | 1020.7 |
| 20260502215551 | 74 | 157 | 2.0 | 7.0 | 0.00 | 0.10 | 0.01 | 38 | 1020.6 |
| 20260502215051 | 74 | 22 | 2.0 | 7.0 | 0.00 | 0.10 | 0.01 | 45 | 1020.6 |
| 20260502214559 | 73 | 125 | 1.0 | 5.0 | 0.00 | 0.10 | 0.01 | 42 | 1020.7 |
| 20260502214049 | 74 | 338 | 2.0 | 6.0 | 0.00 | 0.10 | 0.01 | 44 | 1020.8 |
| 20260502213550 | 74 | 163 | 2.0 | 6.0 | 0.00 | 0.10 | 0.01 | 43 | 1020.8 |
| 20260502213059 | 75 | 130 | 1.0 | 8.0 | 0.00 | 0.10 | 0.01 | 46 | 1020.8 |
| 20260502212548 | 74 | 0 | 1.0 | 8.0 | 0.00 | 0.10 | 0.01 | 43 | 1020.8 |
| 20260502212044 | 74 | 328 | 3.0 | 8.0 | 0.00 | 0.10 | 0.01 | 44 | 1020.9 |
| 20260502211551 | 73 | 325 | 2.0 | 11.0 | 0.00 | 0.10 | 0.01 | 44 | 1021.0 |
| 20260502211045 | 73 | 260 | 2.0 | 11.0 | 0.00 | 0.10 | 0.01 | 40 | 1021.1 |
| 20260502210548 | 73 | 73 | 1.0 | 8.0 | 0.00 | 0.10 | 0.01 | 42 | 1021.3 |
| 20260502210052 | 73 | 338 | 3.0 | 11.0 | 0.00 | 0.10 | 0.01 | 42 | 1021.4 |
| 20260502205548 | 73 | 360 | 2.0 | 11.0 | 0.00 | 0.16 | 0.01 | 45 | 1021.4 |
| 20260502205048 | 73 | 292 | 2.0 | 12.0 | 0.00 | 0.16 | 0.01 | 45 | 1021.4 |
| 20260502204608 | 73 | 27 | 2.0 | 12.0 | 0.00 | 0.16 | 0.01 | 44 | 1021.5 |
| 20260502204048 | 73 | 350 | 2.0 | 12.0 | 0.00 | 0.16 | 0.01 | 46 | 1021.7 |
| 20260502203549 | 72 | 53 | 2.0 | 12.0 | 0.00 | 0.16 | 0.01 | 47 | 1021.8 |
| 20260502203109 | 73 | 315 | 3.0 | 10.0 | 0.00 | 0.16 | 0.01 | 44 | 1021.9 |
| 20260502202550 | 74 | 15 | 2.0 | 8.0 | 0.00 | 0.16 | 0.01 | 42 | 1021.9 |
| 20260502202048 | 74 | 123 | 2.0 | 8.0 | 0.00 | 0.16 | 0.01 | 45 | 1022.0 |
| 20260502201548 | 73 | 0 | 2.0 | 7.0 | 0.00 | 0.16 | 0.01 | 50 | 1022.0 |
| 20260502201051 | 73 | 158 | 2.0 | 6.0 | 0.00 | 0.16 | 0.01 | 44 | 1021.9 |
| 20260502200547 | 73 | 17 | 3.0 | 6.0 | 0.00 | 0.16 | 0.01 | 51 | 1022.1 |
| 20260502200052 | 73 | 9 | 2.0 | 7.0 | 0.00 | 0.16 | 0.01 | 42 | 1022.2 |
| 20260502195546 | 73 | 130 | 2.0 | 7.0 | 0.00 | 0.23 | 0.01 | 51 | 1022.3 |
| 20260502195046 | 71 | 0 | 2.0 | 8.0 | 0.00 | 0.23 | 0.01 | 47 | 1022.1 |
| 20260502194556 | 73 | 355 | 2.0 | 9.0 | 0.00 | 0.23 | 0.01 | 48 | 1022.2 |
| 20260502194047 | 72 | 294 | 4.0 | 9.0 | 0.00 | 0.23 | 0.01 | 46 | 1022.3 |
| 20260502193548 | 72 | 329 | 2.0 | 8.0 | 0.00 | 0.23 | 0.01 | 47 | 1022.5 |
| 20260502193050 | 72 | 9 | 2.0 | 7.0 | 0.00 | 0.23 | 0.01 | 48 | 1022.4 |
| 20260502192549 | 72 | 302 | 2.0 | 6.0 | 0.00 | 0.23 | 0.01 | 47 | 1022.3 |
| 20260502192045 | 73 | 327 | 2.0 | 6.0 | 0.00 | 0.23 | 0.01 | 46 | 1022.4 |
| 20260502191555 | 72 | 86 | 2.0 | 7.0 | 0.00 | 0.23 | 0.01 | 51 | 1022.4 |
| 20260502191047 | 70 | 0 | 2.0 | 7.0 | 0.00 | 0.23 | 0.01 | 51 | 1022.5 |
| 20260502190548 | 70 | 264 | 3.0 | 7.0 | 0.00 | 0.23 | 0.01 | 50 | 1022.5 |
| 20260502190047 | 71 | 54 | 3.0 | 7.0 | 0.00 | 0.23 | 0.01 | 51 | 1022.5 |
| 20260502185547 | 71 | 17 | 2.0 | 9.0 | 0.00 | 0.30 | 0.01 | 50 | 1022.5 |
| 20260502185047 | 71 | 38 | 2.0 | 9.0 | 0.00 | 0.30 | 0.01 | 51 | 1022.5 |
| 20260502184551 | 70 | 351 | 2.0 | 9.0 | 0.00 | 0.30 | 0.01 | 49 | 1022.6 |
| 20260502184045 | 70 | 28 | 2.0 | 8.0 | 0.00 | 0.30 | 0.01 | 54 | 1022.6 |
| 20260502183548 | 70 | 284 | 2.0 | 8.0 | 0.00 | 0.30 | 0.01 | 50 | 1022.7 |
| 20260502183050 | 69 | 0 | 2.0 | 7.0 | 0.00 | 0.30 | 0.01 | 51 | 1022.7 |
| 20260502182551 | 69 | 328 | 2.0 | 9.0 | 0.00 | 0.30 | 0.01 | 57 | 1022.7 |
| 20260502182050 | 68 | 355 | 1.0 | 11.0 | 0.00 | 0.30 | 0.01 | 56 | 1022.7 |
| 20260502181607 | 69 | 245 | 3.0 | 11.0 | 0.00 | 0.30 | 0.01 | 56 | 1022.8 |
| 20260502181048 | 68 | 304 | 1.0 | 8.0 | 0.00 | 0.30 | 0.01 | 56 | 1022.9 |
| 20260502180551 | 69 | 0 | 3.0 | 8.0 | 0.00 | 0.30 | 0.01 | 59 | 1023.0 |
| 20260502164048 | 66 | 319 | 4.0 | 12.0 | 0.00 | 0.52 | 0.01 | 60 | 1024.0 |
| 20260502163550 | 66 | 101 | 2.0 | 8.0 | 0.00 | 0.52 | 0.01 | 62 | 1024.0 |
| 20260502163056 | 66 | 93 | 2.0 | 8.0 | 0.00 | 0.52 | 0.01 | 60 | 1024.0 |
| 20260502162549 | 66 | 138 | 1.0 | 8.0 | 0.00 | 0.52 | 0.01 | 60 | 1024.0 |
| 20260502162052 | 65 | 333 | 1.0 | 9.0 | 0.00 | 0.52 | 0.01 | 60 | 1023.9 |
| 20260502161549 | 65 | 303 | 1.0 | 9.0 | 0.00 | 0.52 | 0.01 | 64 | 1023.9 |
| 20260502161050 | 65 | 35 | 2.0 | 9.0 | 0.00 | 0.52 | 0.01 | 62 | 1023.9 |
| 20260502160550 | 65 | 317 | 2.0 | 8.0 | 0.00 | 0.52 | 0.01 | 58 | 1023.9 |
| 20260502152123 | 62 | 0 | 1.0 | 8.0 | 0.00 | 0.56 | 0.01 | 68 | 1023.7 |
| 20260502151602 | 61 | 304 | 2.0 | 9.0 | 0.00 | 0.56 | 0.01 | 68 | 1023.7 |
| 20260502151051 | 61 | 308 | 2.0 | 9.0 | 0.00 | 0.56 | 0.01 | 70 | 1023.7 |
| 20260502150548 | 61 | 307 | 1.0 | 9.0 | 0.00 | 0.56 | 0.01 | 70 | 1023.7 |
| 20260502130548 | 51 | 304 | 2.0 | 6.0 | 0.00 | 0.69 | 0.00 | 89 | 1022.4 |
| 20260502123548 | 49 | 313 | 2.0 | 5.0 | 0.00 | 0.80 | 0.00 | 92 | 1021.9 |
| 20260502123053 | 48 | 319 | 1.0 | 3.0 | 0.00 | 0.80 | 0.00 | 93 | 1021.9 |
| 20260502122549 | 48 | 325 | 1.0 | 3.0 | 0.00 | 0.80 | 0.00 | 93 | 1021.8 |
| 20260502122047 | 48 | 307 | 1.0 | 3.0 | 0.00 | 0.80 | 0.00 | 93 | 1021.6 |
| 20260502121556 | 48 | 0 | 0.0 | 3.0 | 0.00 | 0.80 | 0.00 | 93 | 1021.4 |
| 20260502121048 | 47 | 0 | 1.0 | 4.0 | 0.00 | 0.80 | 0.00 | 93 | 1021.5 |
| 20260502120550 | 47 | 323 | 1.0 | 4.0 | 0.00 | 0.80 | 0.00 | 93 | 1021.5 |
| 20260502115546 | 47 | 0 | 1.0 | 6.0 | 0.00 | 1.00 | 0.00 | 93 | 1021.5 |
| 20260502115049 | 47 | 310 | 1.0 | 6.0 | 0.00 | 1.00 | 0.00 | 93 | 1021.3 |
| 20260502114556 | 47 | 300 | 2.0 | 4.0 | 0.00 | 1.00 | 0.00 | 93 | 1021.2 |
| 20260502114048 | 47 | 0 | 0.0 | 3.0 | 0.00 | 1.00 | 0.00 | 93 | 1021.1 |
| 20260502113547 | 47 | 0 | 0.0 | 4.0 | 0.00 | 1.00 | 0.00 | 93 | 1021.1 |
| 20260502113059 | 47 | 306 | 1.0 | 4.0 | 0.00 | 1.00 | 0.00 | 93 | 1021.0 |
| 20260502112546 | 47 | 349 | 0.0 | 4.0 | 0.00 | 1.00 | 0.00 | 93 | 1020.9 |
| 20260502112048 | 47 | 0 | 1.0 | 4.0 | 0.00 | 1.00 | 0.00 | 93 | 1020.9 |
| 20260502111551 | 47 | 313 | 0.0 | 3.0 | 0.00 | 1.00 | 0.00 | 93 | 1020.9 |
| 20260502111047 | 47 | 323 | 0.0 | 4.0 | 0.00 | 1.00 | 0.00 | 93 | 1020.8 |
| 20260502110549 | 47 | 346 | 1.0 | 4.0 | 0.00 | 1.00 | 0.00 | 93 | 1020.7 |
| 20260502110058 | 47 | 308 | 0.0 | 2.0 | 0.00 | 1.00 | 0.00 | 93 | 1020.8 |
| 20260502105547 | 47 | 297 | 0.0 | 2.0 | 0.00 | 1.09 | 0.00 | 93 | 1020.7 |
| 20260502105046 | 47 | 302 | 1.0 | 3.0 | 0.00 | 1.09 | 0.00 | 93 | 1020.7 |
| 20260502104552 | 47 | 0 | 0.0 | 3.0 | 0.00 | 1.09 | 0.00 | 93 | 1020.7 |
| 20260502104046 | 47 | 0 | 0.0 | 3.0 | 0.00 | 1.09 | 0.00 | 93 | 1020.6 |
| 20260502103546 | 47 | 297 | 0.0 | 3.0 | 0.00 | 1.09 | 0.00 | 93 | 1020.5 |
| 20260502103058 | 47 | 0 | 0.0 | 2.0 | 0.00 | 1.09 | 0.00 | 93 | 1020.5 |
| 20260502102547 | 47 | 303 | 0.0 | 3.0 | 0.00 | 1.09 | 0.00 | 93 | 1020.4 |
| 20260502102047 | 48 | 0 | 1.0 | 3.0 | 0.00 | 1.09 | 0.00 | 93 | 1020.3 |
| 20260502101551 | 48 | 319 | 1.0 | 3.0 | 0.00 | 1.09 | 0.00 | 93 | 1020.2 |
| 20260502101047 | 48 | 0 | 0.0 | 3.0 | 0.00 | 1.09 | 0.00 | 93 | 1020.2 |
| 20260502100547 | 48 | 261 | 1.0 | 4.0 | 0.00 | 1.09 | 0.00 | 93 | 1019.9 |
| 20260502091048 | 48 | 18 | 1.0 | 8.0 | 0.00 | 1.25 | 0.00 | 93 | 1018.9 |
| 20260502090550 | 49 | 23 | 3.0 | 8.0 | 0.00 | 1.25 | 0.00 | 93 | 1018.9 |
| 20260502080104 | 49 | 360 | 2.0 | 6.0 | 0.00 | 1.48 | 0.00 | 94 | 1018.6 |
| 20260502071045 | 50 | 0 | 1.0 | 4.0 | 0.00 | 1.55 | 0.00 | 93 | 1018.9 |
| 20260502070547 | 50 | 337 | 1.0 | 4.0 | 0.00 | 1.55 | 0.00 | 93 | 1018.8 |
| 20260502070055 | 50 | 321 | 2.0 | 4.0 | 0.00 | 1.55 | 0.00 | 93 | 1018.7 |
| 20260502065549 | 50 | 0 | 1.0 | 4.0 | 0.00 | 1.55 | 0.00 | 93 | 1018.7 |
| 20260502065053 | 50 | 313 | 1.0 | 4.0 | 0.00 | 1.55 | 0.00 | 93 | 1018.8 |
| 20260502064559 | 50 | 313 | 1.0 | 4.0 | 0.00 | 1.55 | 0.00 | 93 | 1018.7 |
| 20260502064049 | 50 | 0 | 1.0 | 4.0 | 0.00 | 1.55 | 0.00 | 93 | 1018.6 |
| 20260502063547 | 50 | 5 | 0.0 | 4.0 | 0.00 | 1.55 | 0.00 | 93 | 1018.7 |
| 20260502063047 | 50 | 313 | 1.0 | 4.0 | 0.00 | 1.55 | 0.00 | 93 | 1018.7 |
| 20260502062547 | 50 | 311 | 0.0 | 3.0 | 0.00 | 1.55 | 0.00 | 93 | 1018.6 |
| 20260502062048 | 50 | 323 | 1.0 | 3.0 | 0.00 | 1.55 | 0.00 | 93 | 1018.7 |
| 20260502061549 | 50 | 327 | 1.0 | 4.0 | 0.00 | 1.55 | 0.00 | 93 | 1018.8 |
| 20260502061047 | 50 | 0 | 0.0 | 4.0 | 0.00 | 1.55 | 0.00 | 93 | 1018.8 |
| 20260502060545 | 50 | 18 | 0.0 | 3.0 | 0.00 | 1.55 | 0.00 | 93 | 1018.7 |
| 20260502060048 | 50 | 350 | 1.0 | 3.0 | 0.00 | 1.55 | 0.00 | 93 | 1019.0 |
| 20260502055545 | 50 | 0 | 1.0 | 3.0 | 0.00 | 1.55 | 0.00 | 93 | 1019.0 |
| 20260502055047 | 50 | 0 | 0.0 | 3.0 | 0.00 | 1.55 | 0.00 | 93 | 1019.1 |
| 20260502054612 | 50 | 319 | 1.0 | 4.0 | 0.00 | 1.55 | 0.00 | 93 | 1019.0 |
| 20260502054048 | 50 | 0 | 1.0 | 4.0 | 0.00 | 1.55 | 0.00 | 93 | 1019.1 |
| 20260502053549 | 50 | 0 | 1.0 | 5.0 | 0.00 | 1.55 | 0.00 | 93 | 1019.2 |
| 20260502053053 | 50 | 306 | 1.0 | 5.0 | 0.00 | 1.55 | 0.00 | 93 | 1019.0 |
| 20260502052549 | 50 | 313 | 0.0 | 4.0 | 0.00 | 1.55 | 0.00 | 92 | 1019.1 |
| 20260502052052 | 50 | 0 | 1.0 | 4.0 | 0.00 | 1.55 | 0.00 | 92 | 1019.2 |
| 20260502051554 | 50 | 325 | 1.0 | 4.0 | 0.00 | 1.55 | 0.00 | 92 | 1019.1 |
| 20260502051050 | 51 | 328 | 1.0 | 5.0 | 0.00 | 1.55 | 0.00 | 92 | 1019.0 |
| 20260502050547 | 51 | 0 | 1.0 | 5.0 | 0.00 | 1.55 | 0.00 | 92 | 1018.9 |
| 20260502050055 | 51 | 22 | 1.0 | 4.0 | 0.00 | 1.55 | 0.00 | 92 | 1018.7 |
| 20260502045547 | 51 | 0 | 0.0 | 4.0 | 0.00 | 1.55 | 1.55 | 92 | 1018.7 |
| 20260502045047 | 51 | 0 | 1.0 | 4.0 | 0.00 | 1.55 | 1.55 | 92 | 1018.7 |
| 20260502044549 | 51 | 14 | 0.0 | 4.0 | 0.00 | 1.55 | 1.55 | 92 | 1018.5 |
| 20260502044045 | 51 | 0 | 1.0 | 4.0 | 0.00 | 1.55 | 1.55 | 92 | 1018.4 |
| 20260502043545 | 51 | 0 | 0.0 | 4.0 | 0.00 | 1.55 | 1.55 | 92 | 1018.5 |
| 20260502043056 | 51 | 20 | 0.0 | 5.0 | 0.00 | 1.55 | 1.55 | 92 | 1018.5 |
| 20260502042547 | 51 | 0 | 1.0 | 5.0 | 0.00 | 1.55 | 1.55 | 92 | 1018.5 |
| 20260502042047 | 51 | 331 | 1.0 | 5.0 | 0.00 | 1.55 | 1.55 | 92 | 1018.7 |
| 20260502041553 | 51 | 342 | 1.0 | 5.0 | 0.00 | 1.55 | 1.55 | 92 | 1018.7 |
| 20260502041047 | 51 | 39 | 2.0 | 7.0 | 0.00 | 1.55 | 1.55 | 92 | 1018.7 |
| 20260502040548 | 51 | 257 | 1.0 | 7.0 | 0.00 | 1.55 | 1.55 | 92 | 1018.7 |
| 20260502035548 | 51 | 0 | 1.0 | 5.0 | 0.00 | 1.55 | 1.55 | 92 | 1018.7 |
| 20260502035048 | 52 | 265 | 1.0 | 8.0 | 0.00 | 1.55 | 1.55 | 92 | 1018.7 |
| 20260502034555 | 51 | 273 | 1.0 | 8.0 | 0.00 | 1.55 | 1.55 | 92 | 1018.7 |
| 20260502034049 | 51 | 0 | 2.0 | 8.0 | 0.00 | 1.55 | 1.55 | 91 | 1018.6 |
| 20260502033547 | 52 | 10 | 1.0 | 5.0 | 0.00 | 1.55 | 1.55 | 91 | 1018.5 |
| 20260502033050 | 52 | 0 | 2.0 | 5.0 | 0.00 | 1.55 | 1.55 | 91 | 1018.5 |
| 20260502032547 | 52 | 0 | 1.0 | 8.0 | 0.00 | 1.55 | 1.55 | 91 | 1018.5 |
| 20260502032048 | 52 | 300 | 2.0 | 8.0 | 0.00 | 1.55 | 1.55 | 91 | 1018.5 |
| 20260502031609 | 52 | 0 | 2.0 | 8.0 | 0.00 | 1.55 | 1.55 | 91 | 1018.5 |
| 20260502031047 | 52 | 329 | 1.0 | 8.0 | 0.00 | 1.55 | 1.55 | 91 | 1018.4 |
| 20260502030547 | 52 | 79 | 2.0 | 10.0 | 0.00 | 1.55 | 1.55 | 91 | 1018.4 |
| 20260502030054 | 52 | 333 | 2.0 | 10.0 | 0.00 | 1.55 | 1.55 | 91 | 1018.2 |
| 20260502025547 | 52 | 91 | 3.0 | 10.0 | 0.00 | 1.55 | 1.55 | 91 | 1018.1 |
| 20260502025046 | 52 | 323 | 2.0 | 8.0 | 0.00 | 1.55 | 1.55 | 91 | 1018.0 |
| 20260502024555 | 52 | 53 | 1.0 | 11.0 | 0.00 | 1.55 | 1.55 | 91 | 1017.9 |
| 20260502024048 | 52 | 85 | 2.0 | 11.0 | 0.00 | 1.55 | 1.55 | 92 | 1017.8 |
| 20260502023548 | 52 | 307 | 2.0 | 6.0 | 0.00 | 1.55 | 1.55 | 92 | 1017.6 |
| 20260502023055 | 52 | 315 | 0.0 | 7.0 | 0.00 | 1.55 | 1.55 | 91 | 1017.6 |
| 20260502022548 | 52 | 302 | 1.0 | 7.0 | 0.00 | 1.55 | 1.55 | 91 | 1017.6 |
| 20260502022046 | 52 | 227 | 1.0 | 5.0 | 0.00 | 1.55 | 1.55 | 91 | 1017.5 |
| 20260502021552 | 52 | 304 | 0.0 | 8.0 | 0.00 | 1.55 | 1.55 | 91 | 1017.5 |
| 20260502021047 | 52 | 355 | 2.0 | 8.0 | 0.00 | 1.55 | 1.55 | 91 | 1017.6 |
| 20260502020549 | 52 | 252 | 1.0 | 8.0 | 0.00 | 1.55 | 1.55 | 91 | 1017.4 |
| 20260502020110 | 52 | 305 | 2.0 | 8.0 | 0.00 | 1.55 | 1.55 | 91 | 1017.2 |
| 20260502015547 | 52 | 0 | 2.0 | 9.0 | 0.00 | 1.55 | 1.55 | 92 | 1017.1 |
| 20260502015047 | 52 | 256 | 2.0 | 9.0 | 0.00 | 1.55 | 1.55 | 92 | 1016.9 |
| 20260502014555 | 52 | 89 | 2.0 | 8.0 | 0.00 | 1.55 | 1.55 | 92 | 1016.8 |
| 20260502014051 | 52 | 355 | 2.0 | 10.0 | 0.00 | 1.55 | 1.55 | 92 | 1016.8 |
| 20260502013547 | 52 | 0 | 2.0 | 10.0 | 0.00 | 1.55 | 1.55 | 92 | 1016.7 |
| 20260502013053 | 52 | 65 | 2.0 | 10.0 | 0.00 | 1.55 | 1.55 | 92 | 1016.8 |
| 20260502012548 | 52 | 24 | 2.0 | 8.0 | 0.00 | 1.55 | 1.55 | 93 | 1016.8 |